Hourly Weather Roundup
Issued by NWS Central Illinois

Home | Current Version | Previous Version | Text Only | Print | Product List | Glossary On
Versions: 1 2 3 4 5 6 7 8 9 10 11 12 13 14 15 16 17 18 19 20 21 22 23 24 25 26 27 28 29 30 31 32 33 34 35 36 37 38 39 40 41 42 43 44 45 46 47 48 49 50
000
NZUS43 KILX 262110
HWRILX

Area Weather Roundup
National Weather Service Lincoln IL
400 PM CDT FRI MAY 26 2017

NOTE:  "FAIR" indicates few or no clouds below 12,000 feet, with
       no sigificant weather and/or obstructions to visibility.


CITY           SKY/WX    TMP DP  RH WIND       PRES   REMARKS
Bloomington    CLOUDY    73  65  75 W6        29.75S
Champaign      CLOUDY    81  65  58 SE13      29.75F HX  83
Danville       PTSUNNY   77  62  60 S14G20    29.75F
Decatur        PTSUNNY   80  64  58 S12       29.74R HX  82
Effingham      PTSUNNY   81  65  57 SE10G22   29.77S HX  83
Flora          CLOUDY    82  63  53 S9        29.77S HX  83
Galesburg      NOT AVBL
Jacksonville   CLOUDY    79  66  65 SW5       29.74R HX  81
Lacon          LGT RAIN  65  64  99 SE3       29.75F
Lawrenceville  CLOUDY    80  59  48 S21       29.78F HX  81
Litchfield     CLOUDY    79  65  62 S14       29.75S HX  81
$$


CITY           SKY/WX    TMP DP  RH WIND       PRES   REMARKS
Lincoln        CLOUDY    82  66  59 S3        29.73R HX  84
Macomb         CLOUDY    69  64  84 CALM      29.77F
Mattoon        PTSUNNY   79  65  62 S12       29.76S HX  81
Mt Carmel AP   PTSUNNY   82  58  43 S16       29.78F HX  82
Olney-Noble AP CLOUDY    80  62  53 S14G20    29.78S HX  81
Paris AP       PTSUNNY   79  68  68 S14       29.78F HX  81
Peoria         CLOUDY    67  65  93 CALM      29.76F
Pontiac        TSTM      70  68  92 N7        29.78R
Rantoul        CLOUDY    79  66  65 SE13      29.75F HX  81
Robinson       SUNNY     80  64  56 S14       29.78F HX  82
Springfield    CLOUDY    82  67  60 S8        29.73R HX  84
Taylorville    CLOUDY    80  65  60 S13       29.74R HX  81
$$

...REGIONAL REPORTS...


CITY           SKY/WX    TMP DP  RH WIND       PRES   REMARKS
Chicago O`Hare RAIN      64  54  69 E12       29.80F
Kankakee       PTSUNNY   73  57  58 SE9       29.79S
Moline         CLOUDY    70  61  73 CALM      29.75F
Mount Sterling PTSUNNY   79  66  64 CALM      29.74R HX  81
Mount Vernon     N/A     79  65  62 SW9       29.77F HX  81
Pittsfield     CLOUDY    80  67  64 SW7       29.75S HX  82
Quincy         CLOUDY    78  67  68 N12       29.73S HX  80
Rockford       LGT RAIN  63  61  93 NE13      29.81F FOG
$$


CITY           SKY/WX    TMP DP  RH WIND       PRES   REMARKS
Burlington     MOSUNNY   74  65  73 NW5       29.75S
Cedar Rapids   CLOUDY    65  62  90 E7        29.78S
Des Moines     MOSUNNY   81  58  45 N7        29.75S HX  81
Kirksville     SUNNY     81  65  58 NW9       29.76R HX  83
Ottumwa        SUNNY     76  63  64 N9        29.76S
St Louis       CLOUDY    81  65  58 S9        29.74S HX  83
$$


CITY           SKY/WX    TMP DP  RH WIND       PRES   REMARKS
Terre Haute    PTSUNNY   80  64  58 S12       29.78F HX  82
Evansville     MOSUNNY   85  58  39 S15       29.80F HX  84
Indianapolis   CLOUDY    76  60  57 S10       29.82F
Lafayette      CLOUDY    74  60  61 SE8       29.78F
Madison        LGT RAIN  62  60  93 CALM      29.82S FOG
Milwaukee      LGT RAIN  61  54  77 SE6       29.86S
$$






USA.gov is the U.S. government's official web portal to all federal, state and local government web resources and services.